DECAYED

CZ-6A DEB, 57574 (Decayed)

Orbit data source: Space-Track

CZ-6A DEB, 57574 was space debris in SSO originally from a launch on Fri, 11 Nov 2022 UTC launched from the Taiyaun Space Center, China (TSC). Debris objects in space refer to the collection of defunct objects orbiting the Earth. Examples of debris include non-operational satellites, rocket bodies, and fragments generated from explosions, collisions, or faulty payload assembly.

Loading next visibility...
Identifier
57574, 2022-151AHR
Orbit
Decayed
Country
Flag of CNCN / PRC
Related business
Manufacturer
SAST
Mission
Decayed spacecraft
Bus & Motor
Unknown
Mass
Unknown
Launch date (UTC)
2022-11-11 (3 years ago)
Launch vehicle
Unknown
Launch site
Taiyaun Space Center, China (TSC)
Object type
Payload
Rocket body
Debris
Shape & HBR
Unknown shape, 1.1 m
Radar Cross Section
Small (<0.1 m²)

Expand to show TLE details & history
Last TLE update: 1 year ago

TLE from 1 year ago
0 CZ-6A DEB
1 57574U 22151AHR 25131.13802406  .01217426  00000-0  12474-1 0  9997
2 57574  98.6195 190.7588 0008557 276.5915  83.4365 15.62131623120402
Epoch: 2025-05-11T03:18Z
TLE epoch observation values (Epoch: 2025-05-11T03:18:45.278Z)
Latitude
-0.00004°
Longitude
-88.09962°
Altitude
383.953 km
Speed
7.68 km/s
True Right ascension
12h 43m 02s
True Declination
0° 00' 00"
Sunlit
Object was in full shadow at epoch
Visualization orbit readout
Latitude
Unknown
Longitude
Unknown
Altitude
Unknown
Speed
Unknown
Apparent Right ascension
Unknown
Apparent Declination
Unknown
Sunlit
N/A
Visualization observer readout
Local Sidereal Time
23:38:54
Azimuth
Unknown
Elevation
Unknown
Doppler factor
Unknown
Orbital elements
Apogee altitude
384.249 km
Perigee altitude
372.686 km
Semi-major axis
6,756.605 km
Eccentricity
0.00086
Inclination
98.6195°
RAAN
190.7588°
Arg. of periapsis
276.5915°
True anomaly
83.53393°
Mean anomaly
83.4365°
Eccentric anomaly
83.48521°
Mean motion
3.90796 °/min
Orbital period
92.12 mins
BSTAR
0.012474
Loading maneuver chart data...
Computing Atmospheric mass density...
Loading historical data...
Loading historical data...
Loading historical data...
Loading historical data...
Loading historical data...
Loading historical data...
Loading historical data...

Documentation

Showing up to 5 results
|